Location: Austin
(30.3000°N, 97.7500°W)
Time: 02:13:12
(UTC-06:00)

Cosmos 2142 Rocket - Pass Details

Date: 20 November 2023
Orbit: 951 x 1005 km, 83.0° (Epoch: 04 December)

Event Time Altitude Azimuth Distance (km) Brightness Sun altitude
Rises 19:00:40 0° 360° (N) 3,635 7.4 -19.0°
Reaches altitude 10° 19:03:14 10° 5° (N) 2,683 6.6 -19.6°
Maximum altitude 19:09:13 56° 82° (E) 1,125 4.4 -20.8°
Drops below altitude 10° 19:15:11 10° 160° (SSE) 2,670 6.7 -22.1°
Sets 19:17:43 0° 164° (SSE) 3,615 7.4 -22.6°
